GW7021 Weather Reports


Display with metric or nautical units.
time (UTC)temp
F
wind
direction
speed
MPH
gust
MPH
rain 1hr
in
rain 24hr
in
rain mn
in
humidity
%
barometer
mb
20260508014504 55 334 1.0 2.0 0.00 0.00 0.00 86 1017.3
20260508014004 55 331 1.0 2.0 0.00 0.00 0.00 84 1017.6
20260508013504 56 19 1.0 2.0 0.00 0.00 0.00 83 1017.6
20260508013005 56 86 1.0 2.0 0.00 0.00 0.00 83 1017.7
20260508012004 57 314 0.0 2.0 0.00 0.00 0.00 82 1017.7
20260508011504 57 314 1.0 2.0 0.00 0.00 0.00 83 1017.7
20260508011004 56 334 1.0 2.0 0.00 0.00 0.00 84 1017.7
20260508010504 56 353 1.0 2.0 0.00 0.00 0.00 83 1017.7
20260508010004 56 28 1.0 2.0 0.00 0.00 0.00 82 1017.7
20260508005504 57 27 2.0 2.0 0.00 0.00 0.00 82 1017.8
20260508005004 56 54 1.0 2.0 0.00 0.00 0.00 82 1017.9
20260508004004 56 61 2.0 3.0 0.00 0.00 0.00 83 1017.9
20260508003505 56 38 1.0 3.0 0.00 0.00 0.00 82 1017.9
20260508003005 56 0 0.0 0.0 0.00 0.00 0.00 82 1017.9
20260508002504 57 176 0.0 2.0 0.00 0.00 0.00 82 1017.9
20260508001504 57 117 2.0 2.0 0.00 0.00 0.00 81 1017.9
20260508001004 57 99 2.0 2.0 0.00 0.00 0.00 82 1017.8
20260508000504 57 96 1.0 2.0 0.00 0.00 0.00 81 1017.9
20260508000005 58 67 1.0 2.0 0.00 0.00 0.00 81 1018.3
20260507234504 57 10 1.0 2.0 0.00 0.00 0.00 82 1018.3
20260507234004 57 42 1.0 2.0 0.00 0.00 0.00 82 1018.5
20260507233504 57 48 2.0 4.0 0.00 0.00 0.00 82 1018.4
20260507233005 57 51 2.0 4.0 0.00 0.00 0.00 83 1018.4
20260507232505 57 46 1.0 2.0 0.00 0.00 0.00 83 1018.4
20260507232004 57 46 1.0 2.0 0.00 0.00 0.00 84 1018.7
20260507231504 57 80 1.0 2.0 0.00 0.00 0.00 84 1018.7
20260507231004 57 80 2.0 2.0 0.00 0.00 0.00 84 1018.6
20260507230005 57 230 1.0 2.0 0.00 0.00 0.00 82 1018.8
20260507225004 58 246 1.0 2.0 0.00 0.00 0.00 80 1018.9
20260507224005 58 43 2.0 3.0 0.00 0.00 0.00 82 1018.9
20260507223504 57 86 1.0 3.0 0.00 0.00 0.00 81 1018.9
20260507222504 58 123 3.0 3.0 0.00 0.00 0.00 80 1018.9
20260507222004 58 154 2.0 3.0 0.00 0.00 0.00 81 1018.8
20260507221504 58 144 2.0 3.0 0.00 0.00 0.00 81 1019.0
20260507221004 58 102 2.0 3.0 0.00 0.00 0.00 82 1019.0
20260507220505 58 78 2.0 2.0 0.00 0.00 0.00 83 1019.0
20260507220005 58 57 1.0 2.0 0.00 0.00 0.00 83 1019.1
20260507215505 58 55 1.0 2.0 0.00 0.00 0.00 83 1019.1
20260507215004 58 65 1.0 2.0 0.00 0.00 0.00 83 1019.2
20260507214504 58 129 1.0 2.0 0.00 0.00 0.00 83 1019.2
20260507214005 58 125 1.0 2.0 0.00 0.00 0.00 83 1019.3
20260507213505 58 97 1.0 2.0 0.00 0.00 0.00 83 1019.2
20260507213005 58 106 1.0 2.0 0.00 0.00 0.00 83 1019.3
20260507212004 59 89 1.0 2.0 0.00 0.00 0.00 81 1019.3
20260507211505 59 55 1.0 2.0 0.00 0.00 0.00 82 1019.3
20260507211005 58 50 1.0 2.0 0.00 0.00 0.00 83 1019.2
20260507210504 58 247 0.0 1.0 0.00 0.00 0.00 82 1019.5
20260507210008 59 355 0.0 2.0 0.00 0.00 0.00 82 1019.5
20260507205504 59 66 1.0 2.0 0.00 0.00 0.00 82 1019.6
20260507204505 59 58 1.0 2.0 0.00 0.00 0.00 81 1019.5
20260507204005 59 92 2.0 3.0 0.00 0.00 0.00 81 1019.5
20260507203005 60 67 0.0 2.0 0.00 0.00 0.00 80 1019.4
20260507202505 60 1 0.0 1.0 0.00 0.00 0.00 81 1019.6
20260507202005 59 96 1.0 2.0 0.00 0.00 0.00 82 1019.4
20260507201005 59 129 1.0 2.0 0.00 0.00 0.00 81 1019.5
20260507200504 59 131 0.0 2.0 0.00 0.00 0.00 82 1019.4
20260507200004 59 35 1.0 3.0 0.00 0.00 0.00 82 1019.4
20260507195504 59 42 2.0 3.0 0.00 0.00 0.00 81 1019.6
20260507194504 59 94 3.0 4.0 0.00 0.00 0.00 80 1019.4
20260507194004 60 112 3.0 4.0 0.00 0.00 0.00 81 1019.3
20260507193505 59 124 3.0 3.0 0.00 0.00 0.00 81 1019.2
20260507192505 59 114 1.0 2.0 0.00 0.00 0.00 83 1019.2
20260507192005 59 76 1.0 2.0 0.00 0.00 0.00 83 1019.1
20260507191005 59 98 0.0 2.0 0.00 0.00 0.00 82 1019.0
20260507190504 60 90 1.0 2.0 0.00 0.00 0.00 82 1018.9
20260507185504 60 111 2.0 2.0 0.00 0.00 0.00 81 1018.7
20260507185004 60 135 1.0 2.0 0.00 0.00 0.00 80 1018.7
20260507184505 61 135 1.0 2.0 0.00 0.00 0.00 80 1018.8
20260507184005 61 135 1.0 2.0 0.00 0.00 0.00 80 1018.8
20260507183505 61 135 0.0 1.0 0.00 0.00 0.00 81 1018.6
20260507183005 60 135 1.0 2.0 0.00 0.00 0.00 81 1018.4
20260507182504 61 119 1.0 2.0 0.00 0.00 0.00 80 1018.2
20260507182005 61 69 1.0 2.0 0.00 0.00 0.00 79 1018.4
20260507181505 62 54 1.0 2.0 0.00 0.00 0.00 78 1018.4
20260507181005 62 85 1.0 2.0 0.00 0.00 0.00 78 1018.4
20260507180505 62 89 1.0 2.0 0.00 0.00 0.00 77 1018.5
20260507175505 63 111 2.0 3.0 0.00 0.00 0.00 77 1018.3
20260507175005 63 90 1.0 2.0 0.00 0.00 0.00 75 1018.3
20260507174504 64 45 0.0 1.0 0.00 0.00 0.00 71 1018.5
20260507174005 64 45 0.0 1.0 0.00 0.00 0.00 71 1018.2
20260507173505 64 28 0.0 1.0 0.00 0.00 0.00 71 1018.2
20260507173006 65 314 0.0 1.0 0.00 0.00 0.00 70 1018.2
20260507172505 66 181 0.0 1.0 0.00 0.00 0.00 68 1018.4
20260507171505 67 339 1.0 2.0 0.00 0.00 0.00 66 1018.3
20260507171005 67 293 1.0 2.0 0.00 0.00 0.00 66 1018.4
20260507170505 67 277 1.0 2.0 0.00 0.00 0.00 64 1018.3
20260507170005 67 323 2.0 3.0 0.00 0.00 0.00 64 1018.3
20260507165505 68 327 2.0 3.0 0.00 0.00 0.00 63 1018.2
20260507165005 68 296 3.0 3.0 0.00 0.00 0.00 63 1018.1
20260507164505 68 306 3.0 4.0 0.00 0.00 0.00 62 1018.1
20260507163505 69 304 5.0 5.0 0.00 0.00 0.00 62 1018.3
20260507163005 69 309 4.0 5.0 0.00 0.00 0.00 60 1018.2
20260507162005 69 312 3.0 3.0 0.00 0.00 0.00 60 1018.0
20260507161505 69 311 2.0 3.0 0.00 0.00 0.00 60 1018.1
20260507161005 69 323 2.0 3.0 0.00 0.00 0.00 58 1018.2
20260507160505 70 310 3.0 4.0 0.00 0.00 0.00 57 1018.0
20260507160005 70 298 3.0 4.0 0.00 0.00 0.00 57 1018.1
20260507155005 72 228 3.0 5.0 0.00 0.00 0.00 55 1018.0
20260507154505 71 225 5.0 7.0 0.00 0.00 0.00 56 1017.9
20260507154005 71 231 6.0 9.0 0.00 0.00 0.00 57 1017.9
20260507153506 71 243 6.0 9.0 0.00 0.00 0.00 57 1018.3
20260507153005 71 248 4.0 6.0 0.00 0.00 0.00 57 1018.3
20260507151505 70 165 5.0 6.0 0.00 0.00 0.00 56 1018.1
20260507151005 70 142 6.0 8.0 0.00 0.00 0.00 56 1017.9
20260507150505 70 150 6.0 8.0 0.00 0.00 0.00 55 1018.0
20260507150006 70 153 6.0 8.0 0.00 0.00 0.00 54 1018.2
20260507145506 70 143 6.0 8.0 0.00 0.00 0.00 54 1018.1
20260507145005 71 143 6.0 7.0 0.00 0.00 0.00 53 1018.1
20260507144505 71 144 6.0 7.0 0.00 0.00 0.00 52 1018.0
20260507143503 72 171 4.0 7.0 0.00 0.00 0.00 51 1018.3
20260507143003 72 167 6.0 8.0 0.00 0.00 0.00 50 1018.2
20260507142503 72 178 6.0 8.0 0.00 0.00 0.00 50 1018.3
20260507142003 72 185 6.0 9.0 0.00 0.00 0.00 50 1018.2
20260507141502 72 184 6.0 9.0 0.00 0.00 0.00 50 1018.3
20260507140503 72 162 6.0 9.0 0.00 0.00 0.00 45 1018.2
20260507140003 72 144 9.0 11.0 0.00 0.00 0.00 48 1018.1
20260507135503 72 154 10.0 11.0 0.00 0.00 0.00 44 1018.0
20260507135003 73 169 10.0 11.0 0.00 0.00 0.00 43 1018.1
20260507134503 73 171 9.0 10.0 0.00 0.00 0.00 42 1018.1
20260507133503 73 156 11.0 12.0 0.00 0.00 0.00 41 1018.1
20260507133003 74 174 11.0 14.0 0.00 0.00 0.00 41 1018.2
20260507132503 73 162 12.0 14.0 0.00 0.00 0.00 42 1018.1
20260507131503 74 165 13.0 16.0 0.00 0.00 0.00 41 1017.9
20260507131003 74 150 13.0 16.0 0.00 0.00 0.00 40 1018.0
20260507130004 74 148 13.0 15.0 0.00 0.00 0.00 41 1018.1
20260507125503 75 162 12.0 16.0 0.00 0.00 0.00 42 1018.1
20260507125004 75 151 12.0 16.0 0.00 0.00 0.00 42 1018.3
20260507124503 74 143 12.0 15.0 0.00 0.00 0.00 46 1018.4
20260507124004 74 143 12.0 15.0 0.00 0.00 0.00 46 1018.4
20260507123503 74 121 12.0 15.0 0.00 0.00 0.00 49 1018.6
20260507123003 74 122 12.0 14.0 0.00 0.00 0.00 50 1018.6
20260507122503 74 152 11.0 13.0 0.00 0.00 0.00 51 1018.5
20260507122004 73 162 11.0 15.0 0.00 0.00 0.00 50 1018.3
20260507121503 73 165 11.0 15.0 0.00 0.00 0.00 48 1018.5
20260507121003 74 155 12.0 14.0 0.00 0.00 0.00 48 1018.6
20260507120004 74 177 14.0 17.0 0.00 0.00 0.00 48 1018.6
20260507115503 74 167 14.0 17.0 0.00 0.00 0.00 47 1018.6
20260507115003 73 154 14.0 17.0 0.00 0.00 0.00 50 1018.6
20260507114503 73 169 13.0 15.0 0.00 0.00 0.00 49 1018.5
20260507114004 73 188 12.0 14.0 0.00 0.00 0.00 48 1018.4
20260507113503 73 182 11.0 13.0 0.00 0.00 0.00 49 1018.5
20260507112503 73 150 11.0 15.0 0.00 0.00 0.00 48 1018.6
20260507112003 73 147 12.0 15.0 0.00 0.00 0.00 45 1018.6
20260507111003 74 144 12.0 15.0 0.00 0.00 0.00 43 1018.5
20260507110503 74 152 12.0 17.0 0.00 0.00 0.00 42 1018.5
20260507110003 74 147 13.0 17.0 0.00 0.00 0.00 40 1018.7
20260507105503 74 146 13.0 15.0 0.00 0.00 0.00 41 1018.8
20260507104503 74 152 12.0 15.0 0.00 0.00 0.00 40 1018.6
20260507103504 74 134 13.0 17.0 0.00 0.00 0.00 40 1018.7
20260507102504 74 148 12.0 15.0 0.00 0.00 0.00 42 1018.9
20260507102003 74 138 13.0 15.0 0.00 0.00 0.00 42 1018.8
20260507101503 75 139 13.0 15.0 0.00 0.00 0.00 40 1018.7
20260507101003 75 148 12.0 15.0 0.00 0.00 0.00 41 1018.8
20260507100503 74 152 12.0 15.0 0.00 0.00 0.00 40 1018.7
20260507100004 74 145 12.0 15.0 0.00 0.00 0.00 39 1018.8
20260507095003 74 137 12.0 15.0 0.00 0.00 0.00 40 1018.4
20260507094503 75 144 12.0 14.0 0.00 0.00 0.00 39 1018.5
20260507093503 75 168 10.0 12.0 0.00 0.00 0.00 40 1018.3
20260507092503 75 181 10.0 14.0 0.00 0.00 0.00 40 1018.4
20260507092004 75 162 11.0 12.0 0.00 0.00 0.00 40 1018.5
20260507091004 76 172 12.0 14.0 0.00 0.00 0.00 37 1018.4
20260507090504 77 167 12.0 14.0 0.00 0.00 0.00 35 1018.3
20260507090004 77 165 11.0 13.0 0.00 0.00 0.00 34 1018.3
20260507085503 77 151 12.0 15.0 0.00 0.00 0.00 36 1018.3
20260507085003 76 133 12.0 15.0 0.00 0.00 0.00 35 1018.4
20260507084503 77 148 11.0 13.0 0.00 0.00 0.00 35 1018.3
20260507083503 77 173 9.0 11.0 0.00 0.00 0.00 35 1018.3
20260507082503 76 156 9.0 11.0 0.00 0.00 0.00 36 1018.7
20260507081503 75 136 9.0 11.0 0.00 0.00 0.00 36 1018.4
20260507080504 75 150 7.0 8.0 0.00 0.00 0.00 37 1018.4
20260507080004 75 163 7.0 8.0 0.00 0.00 0.00 37 1018.5
20260507075503 75 148 7.0 9.0 0.00 0.00 0.00 40 1018.5
20260507075004 74 158 8.0 9.0 0.00 0.00 0.00 38 1018.5
20260507074004 74 169 7.0 8.0 0.00 0.00 0.00 37 1018.3
20260507073504 74 149 7.0 8.0 0.00 0.00 0.00 38 1018.2
20260507073004 74 170 8.0 10.0 0.00 0.00 0.00 39 1018.2
20260507072503 74 187 8.0 10.0 0.00 0.00 0.00 40 1018.4
20260507072003 73 177 8.0 10.0 0.00 0.00 0.00 41 1018.4
20260507071503 73 183 7.0 8.0 0.00 0.00 0.00 41 1018.4
20260507070008 73 200 4.0 5.0 0.00 0.00 0.00 42 1018.2
20260507065504 72 191 4.0 5.0 0.00 0.00 0.00 42 1018.2
20260507065004 72 178 3.0 4.0 0.00 0.00 0.00 46 1018.3
20260507064003 71 227 3.0 4.0 0.00 0.00 0.00 49 1018.4
20260507063503 70 225 3.0 4.0 0.00 0.00 0.00 50 1018.6
20260507063003 70 217 3.0 4.0 0.00 0.00 0.00 49 1018.5
20260507062004 69 163 3.0 3.0 0.00 0.00 0.00 52 1018.4
20260507061504 68 146 3.0 3.0 0.00 0.00 0.00 52 1018.3
20260507061004 67 149 3.0 3.0 0.00 0.00 0.00 57 1018.3
20260507060504 66 143 3.0 3.0 0.00 0.00 0.00 56 1018.4
20260507060003 66 131 2.0 3.0 0.00 0.00 0.00 56 1018.6
20260507055004 65 242 2.0 2.0 0.00 0.00 0.00 58 1018.4
20260507054504 63 257 2.0 2.0 0.00 0.00 0.00 61 1018.3
20260507054004 63 249 2.0 2.0 0.00 0.00 0.00 61 1018.2
20260507053503 63 231 2.0 3.0 0.00 0.00 0.00 64 1018.3
20260507052004 61 225 0.0 1.0 0.00 0.00 0.00 63 1018.4
20260507051504 61 225 0.0 1.0 0.00 0.00 0.00 70 1018.4
20260507051004 60 0 0.0 0.0 0.00 0.00 0.00 73 1018.3
20260507050504 59 225 0.0 2.0 0.00 0.00 0.00 75 1018.2
20260507050005 58 238 1.0 2.0 0.00 0.00 0.00 75 1018.1
20260507045004 56 270 1.0 2.0 0.00 0.00 0.00 77 1018.0
20260507044504 56 135 0.0 1.0 0.00 0.00 0.00 76 1017.8
20260507044004 55 202 1.0 2.0 0.00 0.00 0.00 77 1017.7
20260507043504 54 205 1.0 2.0 0.00 0.00 0.00 79 1017.7
20260507042504 54 329 1.0 2.0 0.00 0.00 0.00 79 1017.5
20260507042004 52 357 2.0 2.0 0.00 0.00 0.00 80 1017.4
20260507041504 53 27 2.0 2.0 0.00 0.00 0.00 78 1017.3
20260507041004 53 43 2.0 2.0 0.00 0.00 0.00 79 1017.2
20260507040504 53 45 2.0 2.0 0.00 0.00 0.00 81 1017.1
20260507040004 52 47 2.0 2.0 0.00 0.00 0.00 84 1017.1
20260507035504 51 68 2.0 3.0 0.00 0.00 0.00 86 1017.0
20260507035004 50 86 2.0 3.0 0.00 0.00 0.00 87 1017.0
20260507034505 49 84 2.0 4.0 0.00 0.00 0.00 87 1017.1
20260507034004 49 110 3.0 4.0 0.00 0.00 0.00 86 1017.1
20260507033504 49 122 3.0 4.0 0.00 0.00 0.00 86 1017.0
20260507033004 49 119 2.0 4.0 0.00 0.00 0.00 85 1017.0
20260507032504 49 143 2.0 3.0 0.00 0.00 0.00 84 1017.2
20260507032005 49 154 3.0 3.0 0.00 0.00 0.00 83 1017.3
20260507031504 49 161 1.0 3.0 0.00 0.00 0.00 82 1017.4
20260507031004 50 190 0.0 2.0 0.00 0.00 0.00 82 1017.4
20260507030504 50 60 1.0 2.0 0.00 0.00 0.00 82 1017.4
20260507030004 50 284 1.0 2.0 0.00 0.00 0.00 81 1017.2
20260507025504 51 291 2.0 2.0 0.00 0.00 0.00 80 1017.0
20260507025005 52 329 2.0 2.0 0.00 0.00 0.00 80 1017.0
20260507024504 52 358 2.0 2.0 0.00 0.00 0.00 81 1017.1
20260507024004 52 17 2.0 2.0 0.00 0.00 0.00 82 1017.0
20260507023504 51 35 2.0 2.0 0.00 0.00 0.00 82 1016.9
20260507023004 51 81 2.0 3.0 0.00 0.00 0.00 81 1016.8
20260507022504 52 119 2.0 3.0 0.00 0.00 0.00 82 1016.6
20260507022004 52 119 3.0 4.0 0.00 0.00 0.00 83 1016.6
20260507021504 51 118 2.0 4.0 0.00 0.00 0.00 85 1016.8
20260507021004 50 76 2.0 2.0 0.00 0.00 0.00 85 1016.8
20260507020005 50 90 2.0 3.0 0.00 0.00 0.00 84 1017.0
20260507015504 50 50 1.0 2.0 0.00 0.00 0.00 83 1017.0
20260507015004 51 39 1.0 2.0 0.00 0.00 0.00 85 1017.0